Weather History for Mountain Home, ID

Change the Weather History Date:

Thursday, December 19, 2013

  Actual Average Record
Temperature  
Mean Temperature 23 °F 29 °F  
Max Temperature 33 °F 37 °F 62 °F (1953)
Min Temperature 12 °F 20 °F -16 °F (1924)
Degree Days  
Heating Degree Days 42 36  
Month to date heating degree days 807 657  
Cooling Degree Days 0 0  
Month to date cooling degree days 0 0  
Moisture  
Dew Point 17 °F    
Average Humidity 74    
Maximum Humidity 100    
Minimum Humidity 48    
Precipitation  
Precipitation 0.01 in 0.05 in 0.74 in (1981)
Month to date precipitation 0.02 1.03  
Sea Level Pressure  
Sea Level Pressure 29.99 in    
Wind  
Wind Speed 14 mph (WNW)    
Max Wind Speed 36 mph    
Max Gust Speed 43 mph    
Visibility 9 miles    
Events      
T = Trace of Precipitation, MM = Missing Value Source: NWS Daily Summary

Daily Weather History Graph

Daily Weather History Graph

Search for Another Location

Airport:

Trip Planner

Search our weather history database for the weather conditions in past years. The results will help you decide how hot, cold, wet, or windy it might be!

Date:

Astronomy

Dec. 19, 2013 Rise Set
Actual Time 8:10 AM MST 5:10 PM MST
Civil Twilight 7:38 AM MST 5:43 PM MST
Nautical Twilight 7:02 AM MST 6:19 PM MST
Astronomical Twilight 6:27 AM MST 6:53 PM MST
Moon 7:43 PM MST (12/19) 9:29 AM MST (12/19)
Length of Visible Light 10h 05m
Length of Day
9h 00m
Waning Gibbous, 95% of the Moon is Illuminated
Dec 19
Waning Gibbous
Dec 25
Last Quarter
Jan 1
New
Jan 7
First Quarter
Jan 15
Full

Hourly Weather History & Observations

Time (MST) Temp. Windchill Dew Point Humidity Pressure Visibility Wind Dir Wind Speed Gust Speed Precip Events Conditions
12:58 AM 20.5 °F - 20.5 °F 100% 29.91 in 3.0 mi West 2.3 mph - N/A   Overcast
1:57 AM 21.2 °F - 21.2 °F 100% 29.91 in 5.0 mi WSW 2.3 mph - N/A   Overcast
2:57 AM 23.0 °F 17.0 °F 23.0 °F 100% 29.80 in 4.0 mi West 4.6 mph - N/A   Overcast
3:58 AM 24.6 °F 14.4 °F 24.6 °F 100% 29.89 in 5.0 mi NW 10.4 mph - N/A   Overcast
4:57 AM 21.4 °F 10.4 °F 21.4 °F 100% 29.88 in 10.0 mi WNW 10.4 mph - N/A   Scattered Clouds
5:58 AM 24.8 °F 11.1 °F 24.8 °F 100% 29.88 in 7.0 mi NW 18.4 mph 25.3 mph N/A   Partly Cloudy
6:58 AM 23.7 °F 8.9 °F 23.7 °F 100% 29.90 in 10.0 mi WNW 20.7 mph - N/A   Clear
7:58 AM 23.9 °F 8.8 °F 23.9 °F 100% 29.93 in 10.0 mi NW 21.9 mph - N/A   Clear
8:58 AM 24.6 °F 7.6 °F 24.6 °F 100% 29.95 in 10.0 mi WNW 29.9 mph 36.8 mph N/A   Clear
9:58 AM 27.9 °F 11.3 °F 26.2 °F 94% 29.97 in 10.0 mi WNW 33.4 mph 42.6 mph N/A   Clear
10:58 AM 30.2 °F 14.9 °F 23.4 °F 76% 29.99 in 10.0 mi WNW 31.1 mph 41.4 mph 0.01 in   Clear
11:58 AM 31.5 °F 15.8 °F 21.2 °F 66% 29.99 in 10.0 mi NW 35.7 mph 41.4 mph N/A   Clear
12:58 PM 32.7 °F 18.6 °F 20.5 °F 61% 29.99 in 10.0 mi NW 29.9 mph 41.4 mph N/A   Clear
1:58 PM 32.9 °F 20.4 °F 18.7 °F 56% 29.99 in 10.0 mi WNW 23.0 mph 32.2 mph N/A   Clear
2:58 PM 32.9 °F 18.9 °F 16.9 °F 52% 30.00 in 10.0 mi NW 29.9 mph 33.4 mph N/A   Clear
3:51 PM 32.0 °F 18.6 °F 14.0 °F 48% 29.95 in 10.0 mi NW 25.3 mph 36.8 mph N/A   Clear
3:58 PM 31.8 °F 17.9 °F 15.3 °F 50% 30.03 in 10.0 mi NW 27.6 mph 32.2 mph N/A   Partly Cloudy
4:18 PM 32.0 °F 19.2 °F 15.8 °F 51% 29.96 in 10.0 mi WNW 23.0 mph - N/A   Mostly Cloudy
4:58 PM 29.5 °F 17.6 °F 13.5 °F 51% 30.05 in 10.0 mi WNW 17.3 mph - N/A   Mostly Cloudy
5:53 PM 26.6 °F 15.7 °F 12.2 °F 55% 29.98 in 10.0 mi NW 12.7 mph - N/A   Mostly Cloudy
5:58 PM 27.3 °F 16.6 °F 11.7 °F 52% 30.07 in 10.0 mi NW 12.7 mph - N/A   Mostly Cloudy
6:58 PM 24.3 °F 12.7 °F 11.3 °F 58% 30.09 in 10.0 mi WNW 12.7 mph - N/A   Scattered Clouds
7:03 PM 24.8 °F 13.4 °F 12.2 °F 59% 30.00 in 10.0 mi WNW 12.7 mph - N/A   Mostly Cloudy
7:58 PM 24.1 °F 14.4 °F 11.8 °F 60% 30.11 in 10.0 mi NW 9.2 mph - N/A   Overcast
8:33 PM 23.0 °F 15.8 °F 12.2 °F 63% 30.01 in 10.0 mi NW 5.8 mph - N/A   Scattered Clouds
8:58 PM 20.5 °F 12.8 °F 10.8 °F 66% 30.12 in 10.0 mi NW 5.8 mph - N/A   Clear
9:58 PM 21.2 °F 11.7 °F 10.9 °F 65% 30.13 in 10.0 mi NNW 8.1 mph - N/A   Clear
10:58 PM 13.5 °F 7.5 °F 9.5 °F 84% 30.15 in 10.0 mi ENE 3.5 mph - N/A   Clear
11:58 PM 12.9 °F 6.9 °F 9.9 °F 88% 30.17 in 10.0 mi WNW 3.5 mph - N/A   Clear